[[{"header":{"parameterUnit":"m.s-1","parameterCategory":2,"la1":30.2991,"la2":30.254,"lo1":-89.0895,"lo2":-89.0444,"dy":0.0017,"dx":0.0017,"nx":28,"ny":28,"refTime":"2024-02-09T03:00:00:Z","depth":"0","parameterNumber":2,"parameterNumberName":"U-component_of_CURRENTS"},"data":[0,0,0,0,0,0,0,0,0,0,0,0,0,0,0,0,0,0,0,0,0,0,0,0,0,0,0,0,0,0,0,0,0,0,0,0,0,0,0,0,0,0,0,0,0,0,0,0,0,0,0,0,0,0,0,0,0,0,-0.3176,-0.3177,0,-0.3235,-0.3236,-0.3236,-0.3215,-0.3214,-0.3213,-0.3212,-0.3198,-0.3199,-0.3199,0,0,0,0,0,0,0,0,0,0,0,0,0,-0.305,-0.3053,-0.3176,-0.3177,-0.3178,-0.3235,-0.3236,-0.3236,-0.3215,-0.3214,-0.3212,-0.3211,-0.3198,-0.3199,-0.3199,0,0,0,0,0,0,0,0,0,0,0,0,0,-0.3104,-0.3053,-0.3176,-0.3176,-0.3177,-0.3235,-0.3236,-0.3236,-0.3215,-0.3214,-0.3212,-0.321,-0.3198,-0.3198,-0.3199,-0.3238,0,0,-0.3202,-0.3203,0,0,0,0,0,0,0,0,-0.3101,-0.3108,-0.3175,-0.3176,-0.3177,-0.3218,-0.3187,-0.3234,-0.3216,-0.3198,-0.3211,-0.321,-0.3201,-0.3202,-0.3213,-0.3237,-0.3237,-0.3202,-0.3203,-0.3203,-0.3204,0,0,0,0,0,0,0,-0.3097,-0.3106,-0.3197,-0.3176,-0.3178,-0.3176,-0.3181,-0.3196,-0.3204,-0.3199,-0.3198,-0.321,-0.32,-0.3213,-0.3213,-0.3236,-0.3202,-0.3203,-0.3204,-0.3204,-0.3262,-0.3263,0,0,0,0,0,0,-0.3098,-0.3103,-0.3195,-0.3199,-0.3138,-0.318,-0.3186,-0.3205,-0.3206,-0.3206,-0.3211,-0.3209,-0.3212,-0.3212,-0.3212,-0.3246,-0.3203,-0.3204,-0.3205,-0.3261,-0.3262,-0.3263,0,0,0,0,0,0,-0.3095,-0.3106,-0.3192,-0.3153,-0.3164,-0.3184,-0.3205,-0.3207,-0.3214,-0.3216,-0.3214,-0.3216,-0.3211,-0.3211,-0.3224,-0.3245,-0.3205,-0.3206,-0.326,-0.3261,-0.3263,-0.332,0,0,0,0,0,0,-0.3091,-0.3105,-0.3115,-0.3154,-0.3167,-0.3232,-0.3207,-0.3209,-0.3225,-0.3222,-0.322,-0.3218,-0.3209,-0.3223,-0.3225,-0.3246,-0.3206,-0.3259,-0.326,-0.3262,-0.3317,-0.3323,-0.3328,0,0,0,0,0,-0.3087,-0.3113,-0.3115,-0.3126,-0.3182,-0.3234,-0.3241,-0.3246,-0.3227,-0.3243,-0.3235,-0.3217,-0.3235,-0.3225,-0.3227,-0.3248,-0.3258,-0.326,-0.3262,-0.3314,-0.3322,-0.3328,0,0,0,0,0,0,-0.3061,-0.3115,-0.3118,-0.3158,-0.3194,-0.3231,-0.3246,-0.325,-0.3259,-0.3249,-0.3236,-0.3235,-0.3253,-0.3245,-0.3234,-0.3269,-0.3242,-0.3245,-0.3281,-0.3288,-0.3294,-0.3271,-0.3207,0,0,0,0,0,-0.3063,-0.3093,-0.3144,-0.3171,-0.3192,-0.3218,-0.3237,-0.3247,-0.3263,-0.3265,-0.3263,-0.3259,-0.3268,-0.3271,-0.3277,-0.3303,-0.3266,-0.3315,-0.3321,-0.3326,-0.331,-0.3287,-0.3288,-0.327,-0.327,-0.327,0,0,-0.3056,-0.3092,-0.3105,-0.3167,-0.3191,-0.3235,-0.3224,-0.3262,-0.3288,-0.3263,-0.3285,-0.3282,-0.3279,-0.3304,-0.3311,-0.3298,-0.3312,-0.3329,-0.3333,-0.3313,-0.3289,-0.329,-0.3292,-0.3272,-0.3271,-0.3271,0,0,-0.3069,-0.3095,-0.3128,-0.3168,-0.3219,-0.3244,-0.3256,-0.3299,-0.3305,-0.3339,-0.332,-0.3321,-0.3346,-0.334,-0.3342,-0.3383,-0.3344,-0.3394,-0.3408,-0.3387,-0.3388,-0.3388,-0.3341,-0.3336,-0.3398,-0.3398,-0.3398,0,-0.3055,-0.3107,-0.3143,-0.3193,-0.3222,-0.3249,-0.3291,-0.3317,-0.3353,-0.3356,-0.3349,-0.3362,-0.3359,-0.3374,-0.3387,-0.3395,-0.3368,-0.3385,-0.3394,-0.3393,-0.3392,-0.3343,-0.3337,-0.3401,-0.34,-0.34,-0.34,0,-0.3101,-0.3141,-0.3166,-0.3233,-0.3272,-0.3313,-0.3361,-0.3386,-0.3393,-0.3408,-0.3421,-0.3417,-0.3415,-0.3426,-0.3421,-0.3423,-0.3401,-0.3404,-0.3374,-0.3397,-0.3344,-0.3337,-0.3405,-0.3404,-0.3403,-0.3402,0,0,-0.3061,-0.3175,-0.3178,-0.3209,-0.3295,-0.3325,-0.338,-0.3425,-0.3439,-0.3463,-0.3469,-0.3483,-0.3464,-0.3462,-0.3455,-0.3438,-0.3413,-0.3422,-0.3419,-0.3369,-0.3348,-0.329,-0.3276,-0.3425,-0.3425,-0.3424,-0.3312,0,-0.3074,-0.3157,-0.3218,-0.3279,-0.3319,-0.3373,-0.342,-0.3461,-0.3483,-0.3499,-0.349,-0.3494,-0.3486,-0.3479,-0.3466,-0.3429,-0.3397,-0.3441,-0.3335,-0.3331,-0.3274,-0.3268,-0.3185,-0.3075,-0.3304,-0.3303,-0.3302,0,-0.309,-0.314,-0.3204,-0.3291,-0.3314,-0.3355,-0.3408,-0.3454,-0.3495,-0.3513,-0.3517,-0.3513,-0.3494,-0.3482,-0.3414,-0.3446,-0.3393,-0.3358,-0.3353,-0.3268,-0.326,-0.3089,-0.3053,-0.304,-0.3291,-0.3292,-0.3292,0,-0.3014,-0.3124,-0.3162,-0.3196,-0.3304,-0.3328,-0.3376,-0.3437,-0.3465,-0.35,-0.3513,-0.3506,-0.3485,-0.3438,-0.3375,-0.3393,-0.3287,-0.3303,-0.3193,-0.3187,-0.3076,-0.3062,-0.3005,-0.3235,-0.3235,-0.3235,-0.3235,0,-0.2992,-0.3021,-0.3126,-0.3142,-0.3183,-0.3272,-0.3309,-0.3363,-0.3424,-0.3446,-0.3493,-0.349,-0.3474,-0.3425,-0.3368,-0.3249,-0.3276,-0.3173,-0.3153,-0.3094,-0.3084,-0.3035,-0.3055,-0.3231,-0.3232,-0.3233,-0.3233,0,-0.2898,-0.2973,-0.3021,-0.312,-0.3146,-0.3165,-0.3268,-0.3296,-0.3368,-0.3394,-0.3403,-0.3454,-0.3396,-0.3361,-0.3273,-0.322,-0.307,-0.3074,-0.2994,-0.2967,-0.2858,-0.2885,-0.2756,-0.2674,-0.2928,-0.2926,-0.2924,0,-0.2859,-0.287,-0.297,-0.299,-0.3029,-0.3082,-0.3123,-0.3236,-0.3274,-0.3358,-0.3357,-0.3343,-0.331,-0.3176,-0.3089,-0.2965,-0.2959,-0.282,-0.2838,-0.282,-0.2836,-0.2846,-0.2787,-0.2708,-0.2705,-0.2702,-0.27,0,-0.2758,-0.2794,-0.2824,-0.2871,-0.2911,-0.2959,-0.3025,-0.305,-0.3172,-0.3203,-0.3212,-0.3191,-0.3129,-0.2991,-0.2873,-0.2786,-0.2766,-0.2757,-0.276,-0.2666,-0.2649,-0.257,-0.2809,-0.2675,-0.2677,-0.2679,-0.2681,-0.2682,-0.2659,-0.2661,-0.2697,-0.2722,-0.2769,-0.2776,-0.2757,-0.285,-0.2863,-0.288,-0.2989,-0.2945,-0.2931,-0.2756,-0.2672,-0.2531,-0.2562,-0.247,-0.2501,-0.2512,-0.2438,-0.2611,-0.2453,-0.2454,-0.2455,-0.2456,-0.2457,0,-0.2518,-0.2527,-0.2548,-0.2561,-0.2534,-0.261,-0.2641,-0.2593,-0.2552,-0.2657,-0.2653,-0.2675,-0.2559,-0.2544,-0.2433,-0.2326,-0.2261,-0.2267,-0.2274,-0.2222,-0.2381,-0.238,-0.2173,-0.2173,-0.2173,-0.2173,-0.2173,-0.2173,-0.244,-0.2394,-0.2403,-0.229,-0.2298,-0.2192,-0.216,-0.2131,-0.2167,-0.2157,-0.2229,-0.235,-0.2363,-0.2513,-0.2374,-0.2254,-0.2184,-0.2116,-0.2114,-0.2272,-0.2294,-0.2316,-0.232,-0.2104,-0.2104,-0.1889,-0.1888,-0.1887]},{"header":{"parameterUnit":"m.s-1","parameterCategory":2,"la1":30.2991,"la2":30.254,"lo1":-89.0895,"lo2":-89.0444,"dy":0.0017,"dx":0.0017,"nx":28,"ny":28,"refTime":"2024-02-09T03:00:00:Z","depth":"0","parameterNumber":3,"parameterNumberName":"V-component_of_CURRENTS"},"data":[0,0,0,0,0,0,0,0,0,0,0,0,0,0,0,0,0,0,0,0,0,0,0,0,0,0,0,0,0,0,0,0,0,0,0,0,0,0,0,0,0,0,0,0,0,0,0,0,0,0,0,0,0,0,0,0,0,0,-0.0328,-0.0327,0,-0.0232,-0.0231,-0.0229,-0.0161,-0.016,-0.016,-0.0159,-0.0004,-0.0001,0.0003,0,0,0,0,0,0,0,0,0,0,0,0,0,-0.0384,-0.0384,-0.0328,-0.0327,-0.0326,-0.0232,-0.0231,-0.0229,-0.0161,-0.016,-0.016,-0.0159,-0.0006,-0.0001,0.0003,0,0,0,0,0,0,0,0,0,0,0,0,0,-0.033,-0.0384,-0.0328,-0.0282,-0.0277,-0.0232,-0.0231,-0.0229,-0.0161,-0.016,-0.016,-0.0159,-0.0007,-0.0002,0.0004,0.0027,0,0,0.0021,0.0024,0,0,0,0,0,0,0,0,-0.0333,-0.0328,-0.0289,-0.0285,-0.0279,-0.0209,-0.0194,-0.0141,-0.0161,-0.0203,-0.0159,-0.0159,-0.0069,-0.0058,-0.004,0.0034,0.004,0.0022,0.0025,0.0027,0.0029,0,0,0,0,0,0,0,-0.0337,-0.0331,-0.0288,-0.0288,-0.0282,-0.0243,-0.0235,-0.0183,-0.0138,-0.0199,-0.0194,-0.0187,-0.0065,-0.0046,-0.0036,0.0043,0.0021,0.0026,0.003,0.0032,0.0168,0.0169,0,0,0,0,0,0,-0.0357,-0.0335,-0.0291,-0.0285,-0.0307,-0.0243,-0.0233,-0.0231,-0.014,-0.0126,-0.0187,-0.0184,-0.0055,-0.0042,-0.003,0.0015,0.0027,0.0033,0.0036,0.0168,0.0168,0.0169,0,0,0,0,0,0,-0.0358,-0.0354,-0.0295,-0.0309,-0.0299,-0.0243,-0.024,-0.0229,-0.021,-0.0132,-0.0117,-0.0179,-0.0054,-0.0038,0.0015,0.0021,0.0035,0.004,0.0168,0.0168,0.0169,0.0098,0,0,0,0,0,0,-0.036,-0.0355,-0.0362,-0.0311,-0.0299,-0.0279,-0.024,-0.0228,-0.0207,-0.0201,-0.012,-0.0105,-0.0053,0.0006,0.002,0.0029,0.0045,0.0168,0.0168,0.0168,0.01,0.0096,0.0092,0,0,0,0,0,-0.0363,-0.038,-0.0363,-0.0358,-0.031,-0.0279,-0.027,-0.0226,-0.0207,-0.0205,-0.0146,-0.0107,0.0019,0.001,0.0027,0.0038,0.0167,0.0168,0.0168,0.0101,0.0096,0.0092,0,0,0,0,0,0,-0.041,-0.0373,-0.0354,-0.0359,-0.0325,-0.0269,-0.0265,-0.0234,-0.0187,-0.0181,-0.0105,-0.0086,-0.0039,0.0008,-0.0004,0.0079,0.01,0.0104,0.0044,0.004,0.0036,0.0024,0.0049,0,0,0,0,0,-0.0425,-0.0427,-0.0381,-0.0386,-0.0374,-0.0321,-0.0304,-0.0274,-0.0226,-0.0205,-0.0146,-0.0081,-0.0023,0.0012,0.0065,0.0111,0.0162,0.013,0.0126,0.0122,0.0124,0.0204,0.0208,0.017,0.017,0.017,0,0,-0.0443,-0.0425,-0.0425,-0.0396,-0.0367,-0.0355,-0.0309,-0.0292,-0.0273,-0.0195,-0.0155,-0.0097,-0.0017,0.0033,0.006,0.0075,0.0159,0.0123,0.0119,0.0124,0.0205,0.0209,0.0212,0.0171,0.0171,0.0171,0,0,-0.049,-0.0467,-0.0486,-0.0461,-0.0427,-0.039,-0.0389,-0.0335,-0.0303,-0.0261,-0.0197,-0.0134,-0.0054,0.0014,0.0057,0.0065,0.0129,0.0079,0.006,0.0137,0.014,0.0144,0.0204,0.0214,0.0084,0.0084,0.0084,0,-0.0516,-0.053,-0.0486,-0.0493,-0.0477,-0.0411,-0.0418,-0.0375,-0.0308,-0.0276,-0.026,-0.0122,-0.0059,0.0024,0.0028,0.0057,0.0103,0.0068,0.0131,0.0136,0.0141,0.0202,0.0214,0.0081,0.0081,0.0082,0.0082,0,-0.057,-0.0577,-0.0586,-0.0568,-0.0542,-0.054,-0.0474,-0.0443,-0.0396,-0.0341,-0.0261,-0.017,-0.0084,-0.0053,-0.0008,0.0065,0.0085,0.0108,0.0138,0.0141,0.0205,0.0218,0.0076,0.0077,0.0078,0.0079,0,0,-0.0639,-0.0629,-0.0632,-0.0636,-0.0582,-0.0569,-0.0532,-0.0475,-0.0445,-0.0366,-0.0312,-0.0205,-0.0147,-0.0094,-0.0021,0.0051,0.0125,0.0089,0.0095,0.0141,0.0285,0.0326,0.0345,0.0158,0.016,0.0162,0.031,0,-0.0697,-0.0737,-0.0704,-0.0721,-0.0729,-0.0651,-0.0621,-0.0553,-0.048,-0.041,-0.0292,-0.022,-0.0163,-0.0121,-0.0038,0.0088,0.0159,0.0082,0.0283,0.0289,0.032,0.0362,0.0412,0.0552,0.0324,0.0326,0.0328,0,-0.076,-0.0776,-0.0815,-0.0794,-0.0789,-0.0784,-0.0714,-0.0676,-0.055,-0.049,-0.0384,-0.0288,-0.0156,-0.0121,0.0098,0.0044,0.0154,0.0248,0.0256,0.0331,0.0357,0.0517,0.0586,0.0766,0.035,0.0348,0.0346,0,-0.0833,-0.0849,-0.0885,-0.0878,-0.0843,-0.084,-0.0811,-0.0707,-0.0667,-0.0537,-0.0486,-0.0319,-0.0229,-0.0069,0.0132,0.0116,0.0368,0.0373,0.0514,0.0517,0.062,0.0629,0.0883,0.0518,0.0518,0.0517,0.0517,0,-0.0904,-0.093,-0.093,-0.095,-0.0982,-0.0918,-0.0913,-0.0855,-0.0753,-0.0694,-0.0539,-0.0449,-0.0212,-0.0034,0.0129,0.0375,0.0372,0.0526,0.0569,0.0595,0.06,0.0809,0.0868,0.0523,0.0522,0.052,0.0519,0,-0.0978,-0.0977,-0.1023,-0.1021,-0.1024,-0.1046,-0.1007,-0.0988,-0.0882,-0.0797,-0.0758,-0.0532,-0.0289,-0.0049,0.0235,0.0377,0.0719,0.0676,0.0683,0.0724,0.1004,0.1056,0.1336,0.145,0.0856,0.0858,0.086,0,-0.1021,-0.1054,-0.1097,-0.1134,-0.1145,-0.1159,-0.1162,-0.1072,-0.1035,-0.0838,-0.0801,-0.0548,-0.0343,0.009,0.0396,0.0708,0.0835,0.0912,0.0895,0.105,0.1141,0.1167,0.1244,0.1003,0.1006,0.1008,0.101,0,-0.1098,-0.1117,-0.1158,-0.1243,-0.1279,-0.1298,-0.129,-0.1278,-0.1138,-0.1032,-0.0841,-0.0659,-0.0211,0.0203,0.061,0.0786,0.1055,0.0967,0.115,0.1302,0.133,0.1449,0.0856,0.103,0.1028,0.1027,0.1025,0.1025,-0.1153,-0.1214,-0.1276,-0.1347,-0.1389,-0.1417,-0.1419,-0.137,-0.1288,-0.1091,-0.089,-0.0572,0.0039,0.0641,0.086,0.1313,0.1245,0.1429,0.1485,0.1502,0.1605,0.1042,0.1245,0.1245,0.1244,0.1243,0.1243,0,-0.1219,-0.1284,-0.137,-0.1449,-0.15,-0.1494,-0.1479,-0.1431,-0.1329,-0.1102,-0.0866,-0.0182,0.0411,0.0945,0.1609,0.1834,0.1878,0.1925,0.1995,0.2054,0.1596,0.1595,0.1857,0.1857,0.1856,0.1856,0.1856,0.1856,-0.1257,-0.1358,-0.1405,-0.1513,-0.156,-0.1584,-0.1566,-0.1468,-0.1295,-0.0902,-0.0515,-0.0176,0.0602,0.1704,0.2302,0.2333,0.2527,0.2477,0.2587,0.228,0.2238,0.2198,0.2216,0.2603,0.2604,0.3041,0.3046,0.3049]}],[{"header":{"parameterUnit":"m.s-1","parameterCategory":2,"la1":30.2991,"la2":30.254,"lo1":-89.0895,"lo2":-89.0444,"dy":0.0017,"dx":0.0017,"nx":28,"ny":28,"refTime":"2024-02-09T03:00:00:Z","depth":"2","parameterNumber":2,"parameterNumberName":"U-component_of_CURRENTS"},"data":[0,0,0,0,0,0,0,0,0,0,0,0,0,0,0,0,0,0,0,0,0,0,0,0,0,0,0,0,0,0,0,0,0,0,0,0,0,0,0,0,0,0,0,0,0,0,0,0,0,0,0,0,0,0,0,0,0,0,-0.2903,-0.2903,0,-0.2957,-0.2958,-0.2958,-0.2946,-0.2945,-0.2944,-0.2944,-0.294,-0.2941,-0.2941,0,0,0,0,0,0,0,0,0,0,0,0,0,-0.2791,-0.2793,-0.2902,-0.2903,-0.2904,-0.2957,-0.2958,-0.2958,-0.2946,-0.2945,-0.2944,-0.2943,-0.294,-0.2941,-0.2942,0,0,0,0,0,0,0,0,0,0,0,0,0,-0.2839,-0.2793,-0.2902,-0.2907,-0.2908,-0.2957,-0.2958,-0.2958,-0.2946,-0.2945,-0.2944,-0.2943,-0.294,-0.2941,-0.2942,-0.297,0,0,-0.2944,-0.2945,0,0,0,0,0,0,0,0,-0.2836,-0.2843,-0.2905,-0.2907,-0.2908,-0.2946,-0.2917,-0.296,-0.2947,-0.2929,-0.2944,-0.2942,-0.294,-0.294,-0.295,-0.297,-0.297,-0.2945,-0.2945,-0.2946,-0.2946,0,0,0,0,0,0,0,-0.2833,-0.284,-0.2921,-0.2906,-0.2908,-0.2907,-0.2913,-0.2925,-0.2937,-0.293,-0.293,-0.2941,-0.2939,-0.2949,-0.295,-0.297,-0.2945,-0.2945,-0.2946,-0.2946,-0.3003,-0.3004,0,0,0,0,0,0,-0.2834,-0.2838,-0.292,-0.2923,-0.2872,-0.2911,-0.2916,-0.2933,-0.2938,-0.2939,-0.2942,-0.2941,-0.2948,-0.2949,-0.2949,-0.2989,-0.2945,-0.2946,-0.2947,-0.3002,-0.3003,-0.3004,0,0,0,0,0,0,-0.2831,-0.2841,-0.2917,-0.2883,-0.2893,-0.2914,-0.2932,-0.2934,-0.2946,-0.2948,-0.2947,-0.2952,-0.2947,-0.2948,-0.2965,-0.2988,-0.2947,-0.2948,-0.3001,-0.3003,-0.3004,-0.3064,0,0,0,0,0,0,-0.2828,-0.284,-0.285,-0.2884,-0.2895,-0.2954,-0.2934,-0.2936,-0.2956,-0.2954,-0.2956,-0.2955,-0.2946,-0.2963,-0.2966,-0.2989,-0.2948,-0.3,-0.3002,-0.3003,-0.3061,-0.3068,-0.3073,0,0,0,0,0,-0.2824,-0.2847,-0.2851,-0.2861,-0.291,-0.2956,-0.2962,-0.297,-0.2957,-0.2973,-0.2969,-0.2954,-0.2976,-0.2965,-0.2968,-0.2991,-0.2999,-0.3001,-0.3003,-0.3058,-0.3066,-0.3073,0,0,0,0,0,0,-0.2802,-0.285,-0.2854,-0.2889,-0.2922,-0.2955,-0.297,-0.2977,-0.2988,-0.2982,-0.2972,-0.2971,-0.2993,-0.2985,-0.2974,-0.3012,-0.2984,-0.2986,-0.3025,-0.3032,-0.3038,-0.3019,-0.2949,0,0,0,0,0,-0.2804,-0.2831,-0.2876,-0.2901,-0.2921,-0.2946,-0.2964,-0.2975,-0.2992,-0.2996,-0.2997,-0.2997,-0.3006,-0.3012,-0.3017,-0.3044,-0.301,-0.3059,-0.3065,-0.307,-0.3056,-0.3036,-0.3039,-0.3011,-0.3011,-0.3011,0,0,-0.2799,-0.283,-0.2843,-0.2898,-0.2921,-0.2961,-0.2953,-0.299,-0.3015,-0.2995,-0.3021,-0.3021,-0.3018,-0.3044,-0.3053,-0.304,-0.306,-0.3073,-0.3077,-0.306,-0.3039,-0.3041,-0.3043,-0.3013,-0.3013,-0.3012,0,0,-0.2809,-0.2835,-0.2864,-0.2901,-0.295,-0.2972,-0.2986,-0.3027,-0.3036,-0.3071,-0.3056,-0.3063,-0.3089,-0.3084,-0.3085,-0.3127,-0.3092,-0.314,-0.3158,-0.3141,-0.3142,-0.3143,-0.3101,-0.3097,-0.3144,-0.3144,-0.3144,0,-0.28,-0.2845,-0.2878,-0.2923,-0.2951,-0.2979,-0.3018,-0.3044,-0.3081,-0.3088,-0.3085,-0.3104,-0.3102,-0.3119,-0.3134,-0.314,-0.3117,-0.3134,-0.3147,-0.3148,-0.3148,-0.3104,-0.3099,-0.3147,-0.3147,-0.3146,-0.3146,0,-0.2838,-0.2876,-0.2898,-0.296,-0.2997,-0.3036,-0.3082,-0.311,-0.3123,-0.314,-0.316,-0.3159,-0.3162,-0.3174,-0.317,-0.3177,-0.3157,-0.3157,-0.3127,-0.3154,-0.3106,-0.31,-0.3151,-0.315,-0.3149,-0.3149,0,0,-0.2802,-0.2904,-0.2909,-0.2938,-0.3019,-0.3047,-0.3101,-0.3146,-0.3165,-0.3194,-0.3207,-0.3225,-0.3214,-0.3213,-0.3209,-0.3196,-0.3181,-0.3183,-0.318,-0.3136,-0.3126,-0.3066,-0.3053,-0.3192,-0.3192,-0.3191,-0.3092,0,-0.2814,-0.2887,-0.2943,-0.3001,-0.3037,-0.3092,-0.3138,-0.3181,-0.3208,-0.3231,-0.3228,-0.324,-0.3235,-0.3235,-0.3226,-0.3194,-0.3169,-0.3206,-0.3109,-0.3105,-0.3046,-0.3046,-0.2845,-0.2736,-0.3086,-0.3085,-0.3084,0,-0.2825,-0.287,-0.293,-0.3012,-0.3034,-0.3075,-0.3133,-0.3178,-0.3226,-0.3248,-0.3261,-0.3263,-0.3253,-0.3243,-0.3188,-0.3216,-0.317,-0.3138,-0.3134,-0.3047,-0.3034,-0.2767,-0.2712,-0.3074,-0.3075,-0.3075,-0.3076,0,-0.2756,-0.2856,-0.2893,-0.2924,-0.3027,-0.3055,-0.3103,-0.3167,-0.3199,-0.3242,-0.3261,-0.3263,-0.325,-0.3211,-0.3158,-0.3174,-0.3082,-0.3094,-0.2987,-0.2981,-0.2771,-0.2748,-0.3035,-0.3035,-0.3036,-0.3036,-0.3036,0,-0.2733,-0.2761,-0.2861,-0.2876,-0.292,-0.3005,-0.3049,-0.3104,-0.3169,-0.3195,-0.3247,-0.325,-0.3244,-0.3203,-0.3153,-0.3044,-0.3073,-0.2971,-0.295,-0.2788,-0.2769,-0.3034,-0.3035,-0.3032,-0.3033,-0.3034,-0.3034,0,-0.2646,-0.2716,-0.2762,-0.2859,-0.2886,-0.2909,-0.3013,-0.3044,-0.3121,-0.3153,-0.3166,-0.3223,-0.3175,-0.3146,-0.307,-0.3019,-0.2933,-0.2883,-0.2685,-0.2643,-0.2841,-0.2847,-0.2748,-0.2745,-0.2742,-0.274,-0.2738,0,-0.2609,-0.2621,-0.2718,-0.2739,-0.278,-0.2836,-0.2878,-0.2991,-0.303,-0.3121,-0.3121,-0.3119,-0.3088,-0.2968,-0.2873,-0.2755,-0.2838,-0.2513,-0.2509,-0.2821,-0.2811,-0.2821,-0.283,-0.2246,-0.224,-0.2236,-0.2232,0,-0.2515,-0.2553,-0.2582,-0.263,-0.2673,-0.2719,-0.2786,-0.2811,-0.2933,-0.2966,-0.2979,-0.296,-0.2896,-0.2696,-0.258,-0.2488,-0.2524,-0.2416,-0.2766,-0.2373,-0.2346,-0.2338,-0.2363,-0.2191,-0.2195,-0.2198,-0.22,-0.2202,-0.2426,-0.2429,-0.2465,-0.2493,-0.2541,-0.2546,-0.2528,-0.2613,-0.2626,-0.2625,-0.2739,-0.2644,-0.263,-0.2345,-0.2213,-0.2106,-0.2273,-0.2166,-0.218,-0.2199,-0.2183,-0.2155,-0.1958,-0.1961,-0.1963,-0.1965,-0.1967,0,-0.2294,-0.2304,-0.2326,-0.234,-0.2315,-0.2392,-0.242,-0.2358,-0.2311,-0.236,-0.2342,-0.2103,-0.199,-0.197,-0.1752,-0.1715,-0.1693,-0.1636,-0.161,-0.1652,-0.1689,-0.1648,-0.128,-0.1278,-0.1276,-0.1274,0,0,-0.222,-0.2176,-0.2183,-0.2079,-0.2092,-0.1988,-0.1957,-0.1897,-0.1883,-0.1765,-0.1728,-0.188,-0.1929,-0.1611,-0.1533,-0.1372,-0.1494,-0.1302,-0.1854,-0.1866,-0.19,-0.1996,-0.1979,0,0,0,0,0]},{"header":{"parameterUnit":"m.s-1","parameterCategory":2,"la1":30.2991,"la2":30.254,"lo1":-89.0895,"lo2":-89.0444,"dy":0.0017,"dx":0.0017,"nx":28,"ny":28,"refTime":"2024-02-09T03:00:00:Z","depth":"2","parameterNumber":3,"parameterNumberName":"V-component_of_CURRENTS"},"data":[0,0,0,0,0,0,0,0,0,0,0,0,0,0,0,0,0,0,0,0,0,0,0,0,0,0,0,0,0,0,0,0,0,0,0,0,0,0,0,0,0,0,0,0,0,0,0,0,0,0,0,0,0,0,0,0,0,0,-0.0369,-0.0368,0,-0.0282,-0.0281,-0.028,-0.0214,-0.0214,-0.0213,-0.0213,-0.0068,-0.0065,-0.0061,0,0,0,0,0,0,0,0,0,0,0,0,0,-0.0417,-0.0416,-0.0369,-0.0368,-0.0367,-0.0282,-0.0281,-0.028,-0.0214,-0.0214,-0.0213,-0.0213,-0.0069,-0.0065,-0.0061,0,0,0,0,0,0,0,0,0,0,0,0,0,-0.0368,-0.0416,-0.0369,-0.0326,-0.0321,-0.0283,-0.0281,-0.0279,-0.0215,-0.0214,-0.0213,-0.0213,-0.007,-0.0065,-0.006,-0.0042,0,0,-0.0045,-0.0042,0,0,0,0,0,0,0,0,-0.0371,-0.0366,-0.0333,-0.0329,-0.0323,-0.026,-0.0245,-0.0198,-0.0215,-0.0253,-0.0213,-0.0212,-0.0128,-0.0118,-0.0102,-0.0035,-0.0029,-0.0044,-0.0041,-0.0039,-0.0037,0,0,0,0,0,0,0,-0.0375,-0.0369,-0.0333,-0.0332,-0.0326,-0.0289,-0.0282,-0.0235,-0.0193,-0.025,-0.0245,-0.0238,-0.0125,-0.0107,-0.0098,-0.0027,-0.0044,-0.004,-0.0036,-0.0034,0.0088,0.0089,0,0,0,0,0,0,-0.0393,-0.0373,-0.0336,-0.0331,-0.0348,-0.0289,-0.0281,-0.028,-0.0195,-0.0182,-0.0239,-0.0236,-0.0116,-0.0104,-0.0093,-0.0052,-0.0039,-0.0034,-0.0031,0.0088,0.0088,0.0089,0,0,0,0,0,0,-0.0394,-0.0391,-0.0339,-0.0351,-0.0342,-0.029,-0.0288,-0.0278,-0.026,-0.0188,-0.0173,-0.0232,-0.0115,-0.01,-0.0052,-0.0046,-0.0032,-0.0027,0.0088,0.0088,0.0089,0.0021,0,0,0,0,0,0,-0.0396,-0.0392,-0.0399,-0.0352,-0.0342,-0.0326,-0.0289,-0.0277,-0.0258,-0.0252,-0.0176,-0.0162,-0.0114,-0.006,-0.0047,-0.0039,-0.0023,0.0088,0.0088,0.0088,0.0023,0.0019,0.0015,0,0,0,0,0,-0.0398,-0.0416,-0.04,-0.0395,-0.0353,-0.0327,-0.0318,-0.0277,-0.0258,-0.0257,-0.0202,-0.0165,-0.0048,-0.0056,-0.004,-0.0031,0.0088,0.0088,0.0088,0.0025,0.002,0.0016,0,0,0,0,0,0,-0.0442,-0.0409,-0.0391,-0.0398,-0.0368,-0.0317,-0.0314,-0.0285,-0.0241,-0.0235,-0.0164,-0.0146,-0.0103,-0.0059,-0.0069,0.0006,0.0027,0.003,-0.0027,-0.0031,-0.0035,-0.0045,-0.0019,0,0,0,0,0,-0.0456,-0.0459,-0.0418,-0.0424,-0.0414,-0.0365,-0.035,-0.0322,-0.0277,-0.0258,-0.0203,-0.0142,-0.0089,-0.0056,-0.0008,0.0033,0.0084,0.0051,0.0047,0.0043,0.0046,0.0123,0.0126,0.009,0.009,0.009,0,0,-0.0474,-0.0458,-0.0459,-0.0434,-0.0407,-0.0399,-0.0354,-0.0339,-0.0324,-0.0248,-0.0213,-0.0158,-0.0084,-0.0039,-0.0014,0.0,0.0079,0.0044,0.004,0.0045,0.0124,0.0127,0.0131,0.009,0.009,0.009,0,0,-0.0519,-0.0499,-0.0518,-0.0496,-0.0466,-0.0432,-0.0431,-0.0382,-0.0353,-0.0315,-0.0254,-0.0195,-0.0122,-0.0059,-0.0019,-0.0013,0.005,-0.0001,-0.0018,0.0056,0.0059,0.0063,0.0123,0.0132,0.0005,0.0005,0.0004,0,-0.0544,-0.0559,-0.0519,-0.0528,-0.0514,-0.0452,-0.0461,-0.0422,-0.0361,-0.0331,-0.0315,-0.0187,-0.0128,-0.0051,-0.0047,-0.0021,0.0025,-0.001,0.005,0.0055,0.0061,0.0121,0.0132,0.0001,0.0002,0.0002,0.0002,0,-0.0598,-0.0606,-0.0615,-0.0602,-0.0579,-0.0579,-0.0518,-0.049,-0.0446,-0.0394,-0.0321,-0.0235,-0.0154,-0.0126,-0.0083,-0.0014,0.0007,0.0029,0.0058,0.006,0.0123,0.0137,-0.0003,-0.0002,-0.0001,-0.0,0,0,-0.0663,-0.0658,-0.0661,-0.0665,-0.0618,-0.0607,-0.0575,-0.0524,-0.0496,-0.0422,-0.0372,-0.0272,-0.0215,-0.0166,-0.0097,-0.0026,0.0047,0.0011,0.0017,0.0063,0.0203,0.0239,0.0258,0.0078,0.008,0.0082,0.0229,0,-0.0719,-0.0761,-0.0732,-0.075,-0.076,-0.0689,-0.0663,-0.06,-0.0532,-0.0467,-0.0355,-0.0287,-0.0232,-0.0192,-0.0112,0.001,0.008,0.0004,0.0201,0.0207,0.0234,0.0274,0.022,0.0349,0.0242,0.0244,0.0246,0,-0.0781,-0.0798,-0.0838,-0.0822,-0.0818,-0.0815,-0.0752,-0.0718,-0.0601,-0.0544,-0.0443,-0.0352,-0.0225,-0.019,0.0021,-0.0032,0.0076,0.0167,0.0176,0.0245,0.0269,0.0334,0.0378,0.0269,0.0267,0.0265,0.0264,0,-0.0849,-0.0868,-0.0904,-0.0899,-0.087,-0.0869,-0.0844,-0.0748,-0.0711,-0.0588,-0.054,-0.0381,-0.0293,-0.0138,0.0057,0.0041,0.0285,0.029,0.0424,0.0427,0.044,0.0441,0.0431,0.0431,0.0431,0.0431,0.043,0,-0.0916,-0.0942,-0.0946,-0.0966,-0.0999,-0.0942,-0.094,-0.0887,-0.0792,-0.0737,-0.059,-0.0505,-0.0276,-0.0105,0.0054,0.0291,0.029,0.0436,0.0478,0.0414,0.0411,0.0386,0.0379,0.0436,0.0435,0.0434,0.0433,0,-0.0984,-0.0986,-0.1032,-0.1035,-0.1039,-0.1061,-0.1029,-0.1012,-0.0912,-0.0834,-0.0797,-0.0581,-0.0348,-0.0118,0.0158,0.0293,0.0505,0.0582,0.0487,0.0516,0.0593,0.058,0.0749,0.0751,0.0754,0.0756,0.0757,0,-0.1025,-0.1058,-0.1103,-0.1139,-0.1152,-0.1167,-0.1173,-0.109,-0.1056,-0.0872,-0.0837,-0.0595,-0.0402,0.0015,0.0295,0.0592,0.0585,0.0702,0.067,0.0607,0.0631,0.0614,0.0599,0.0656,0.0657,0.0657,0.0658,0,-0.1097,-0.1117,-0.1157,-0.1241,-0.1278,-0.1298,-0.1294,-0.1284,-0.1154,-0.1055,-0.0875,-0.0704,-0.0289,0.0052,0.0436,0.0591,0.0651,0.0724,0.0711,0.0578,0.0531,0.055,0.0536,0.0662,0.0662,0.0662,0.0661,0.0661,-0.1149,-0.1207,-0.1268,-0.1338,-0.1381,-0.141,-0.1414,-0.1368,-0.1292,-0.1108,-0.0927,-0.0639,-0.0298,0.025,0.0521,0.0753,0.0749,0.0794,0.0787,0.0782,0.0739,0.0698,0.0853,0.0853,0.0854,0.0854,0.0854,0,-0.1209,-0.1272,-0.1357,-0.1434,-0.1484,-0.1483,-0.1472,-0.1423,-0.1326,-0.1125,-0.091,-0.0521,-0.0124,0.0216,0.06,0.0839,0.0798,0.0855,0.0759,0.0753,0.0748,0.07,0.0806,0.0806,0.0807,0.0807,0,0,-0.1244,-0.134,-0.1386,-0.1491,-0.1541,-0.1565,-0.155,-0.1449,-0.1296,-0.1078,-0.086,-0.0545,-0.0117,0.0148,0.0447,0.0642,0.0627,0.0643,0.0655,0.05,0.0493,0.0685,0.0602,0,0,0,0,0]}],[{"header":{"parameterUnit":"m.s-1","parameterCategory":2,"la1":30.2991,"la2":30.254,"lo1":-89.0895,"lo2":-89.0444,"dy":0.0017,"dx":0.0017,"nx":28,"ny":28,"refTime":"2024-02-09T03:00:00:Z","depth":"4","parameterNumber":2,"parameterNumberName":"U-component_of_CURRENTS"},"data":[0,0,0,0,0,0,0,0,0,0,0,0,0,0,0,0,0,0,0,0,0,0,0,0,0,0,0,0,0,0,0,0,0,0,0,0,0,0,0,0,0,0,0,0,0,0,0,0,0,0,0,0,0,0,0,0,0,0,-0.1909,-0.191,0,-0.199,-0.1991,-0.1992,-0.2043,-0.2044,-0.2044,-0.2045,-0.2117,-0.2119,-0.212,0,0,0,0,0,0,0,0,0,0,0,0,0,-0.1797,-0.1799,-0.1909,-0.1911,-0.1912,-0.199,-0.1991,-0.1992,-0.2043,-0.2044,-0.2044,-0.2045,-0.2117,-0.2119,-0.2121,0,0,0,0,0,0,0,0,0,0,0,0,0,-0.1856,-0.1799,-0.1909,-0.1948,-0.1953,-0.199,-0.1991,-0.1992,-0.2043,-0.2044,-0.2044,-0.2045,-0.2116,-0.2119,-0.2121,-0.2119,0,0,-0.2127,-0.2128,0,0,0,0,0,0,0,0,-0.1853,-0.186,-0.1941,-0.1946,-0.1951,-0.2009,-0.1978,-0.2035,-0.2043,-0.2006,-0.2045,-0.2045,-0.2081,-0.2087,-0.2097,-0.2123,-0.2126,-0.2128,-0.2129,-0.213,-0.2131,0,0,0,0,0,0,0,-0.1849,-0.1857,-0.1939,-0.1943,-0.1948,-0.1961,-0.197,-0.1989,-0.2037,-0.201,-0.2014,-0.2026,-0.2084,-0.2095,-0.2099,-0.2127,-0.2128,-0.213,-0.2131,-0.2132,-0.2235,-0.2236,0,0,0,0,0,0,-0.1843,-0.1853,-0.1937,-0.1942,-0.1905,-0.1963,-0.1973,-0.1988,-0.2037,-0.2046,-0.2026,-0.2029,-0.2091,-0.2097,-0.2102,-0.2189,-0.213,-0.2132,-0.2133,-0.2233,-0.2235,-0.2237,0,0,0,0,0,0,-0.184,-0.185,-0.1933,-0.1901,-0.1913,-0.1964,-0.1981,-0.1989,-0.2036,-0.205,-0.2058,-0.2068,-0.2091,-0.2099,-0.215,-0.2188,-0.2133,-0.2135,-0.2232,-0.2234,-0.2236,-0.2307,0,0,0,0,0,0,-0.1837,-0.1848,-0.1873,-0.1901,-0.1915,-0.198,-0.198,-0.199,-0.2041,-0.2047,-0.2088,-0.2093,-0.2093,-0.2147,-0.2152,-0.219,-0.2137,-0.223,-0.2233,-0.2235,-0.2303,-0.2311,-0.2318,0,0,0,0,0,-0.1832,-0.1858,-0.1874,-0.1885,-0.1942,-0.1981,-0.199,-0.2027,-0.2043,-0.207,-0.2099,-0.2094,-0.2167,-0.215,-0.2156,-0.2196,-0.2229,-0.2232,-0.2235,-0.2299,-0.2309,-0.2318,0,0,0,0,0,0,-0.1823,-0.1867,-0.1885,-0.1924,-0.1962,-0.1991,-0.2025,-0.2047,-0.2092,-0.2107,-0.2115,-0.2123,-0.218,-0.2177,-0.2158,-0.2232,-0.2196,-0.2201,-0.2243,-0.2252,-0.226,-0.2247,-0.2139,0,0,0,0,0,-0.1831,-0.1865,-0.1904,-0.1939,-0.1962,-0.2,-0.2028,-0.2054,-0.2089,-0.2111,-0.2141,-0.2168,-0.2191,-0.2215,-0.2233,-0.2278,-0.2248,-0.2306,-0.2313,-0.232,-0.2313,-0.2304,-0.231,-0.2247,-0.2247,-0.2247,0,0,-0.1838,-0.1867,-0.1887,-0.194,-0.1973,-0.2013,-0.2019,-0.2073,-0.2112,-0.2111,-0.2182,-0.22,-0.2208,-0.2258,-0.2283,-0.2266,-0.2324,-0.2324,-0.233,-0.2319,-0.2308,-0.2314,-0.2319,-0.2249,-0.2249,-0.2249,0,0,-0.1853,-0.1894,-0.1926,-0.1963,-0.2023,-0.2047,-0.2071,-0.2124,-0.2159,-0.2221,-0.2227,-0.2264,-0.2316,-0.2322,-0.233,-0.239,-0.2363,-0.241,-0.2445,-0.2438,-0.2443,-0.2446,-0.2416,-0.2417,-0.2417,-0.2417,-0.2417,0,-0.1862,-0.1904,-0.1942,-0.1983,-0.2019,-0.2066,-0.2108,-0.2148,-0.2214,-0.224,-0.2257,-0.2324,-0.2338,-0.2374,-0.2401,-0.2407,-0.2394,-0.2411,-0.2447,-0.245,-0.2453,-0.2421,-0.242,-0.2421,-0.242,-0.242,-0.242,0,-0.1891,-0.1941,-0.1966,-0.2031,-0.2075,-0.2122,-0.2177,-0.2232,-0.2281,-0.2311,-0.2376,-0.2396,-0.2429,-0.2448,-0.2449,-0.2483,-0.2464,-0.2456,-0.2421,-0.2463,-0.2427,-0.2425,-0.2426,-0.2425,-0.2424,-0.2423,0,0,-0.1861,-0.1966,-0.1977,-0.2017,-0.2107,-0.2138,-0.2215,-0.2279,-0.2323,-0.239,-0.2435,-0.2485,-0.2498,-0.2506,-0.2515,-0.2517,-0.253,-0.2507,-0.2505,-0.2472,-0.2506,-0.2358,-0.2342,-0.2539,-0.2539,-0.2539,-0.2473,0,-0.1873,-0.1946,-0.2003,-0.208,-0.212,-0.2195,-0.2257,-0.2325,-0.2381,-0.2439,-0.2467,-0.2513,-0.252,-0.2545,-0.2552,-0.2538,-0.253,-0.2547,-0.2473,-0.247,-0.233,-0.2336,-0.254,-0.2471,-0.247,-0.247,-0.247,0,-0.1872,-0.1923,-0.1998,-0.2102,-0.2129,-0.2188,-0.2286,-0.2347,-0.243,-0.2478,-0.2527,-0.2551,-0.2578,-0.2574,-0.2559,-0.2577,-0.2547,-0.2526,-0.2523,-0.2354,-0.2318,-0.242,-0.2466,-0.2466,-0.2466,-0.2467,-0.2467,0,-0.1801,-0.1916,-0.1975,-0.2012,-0.2136,-0.2192,-0.226,-0.2357,-0.2407,-0.2496,-0.2535,-0.2575,-0.2594,-0.2577,-0.255,-0.2563,-0.251,-0.2514,-0.2344,-0.2333,-0.2456,-0.2452,-0.2484,-0.2484,-0.2484,-0.2484,-0.2484,0,-0.1764,-0.1816,-0.1954,-0.1982,-0.206,-0.216,-0.2245,-0.232,-0.2417,-0.2458,-0.2544,-0.256,-0.26,-0.2582,-0.255,-0.2428,-0.2505,-0.2332,-0.2302,-0.2487,-0.2488,-0.2454,-0.2451,-0.2482,-0.2482,-0.2483,-0.2483,0,-0.167,-0.1764,-0.184,-0.1981,-0.2027,-0.2081,-0.2229,-0.2276,-0.2388,-0.244,-0.2469,-0.2549,-0.2519,-0.2522,-0.248,-0.24,-0.2317,-0.2254,-0.2438,-0.2422,-0.2144,-0.2147,-0.2047,-0.2041,-0.2036,-0.2032,-0.2028,0,-0.1625,-0.1655,-0.1813,-0.186,-0.1931,-0.2033,-0.2097,-0.2239,-0.2282,-0.2402,-0.2399,-0.2429,-0.2457,-0.2261,-0.2299,-0.2201,-0.2179,-0.2122,-0.2143,-0.2117,-0.2098,-0.2108,-0.2117,-0.202,-0.2019,-0.2018,-0.2016,0,-0.1526,-0.1603,-0.1663,-0.1756,-0.1838,-0.1912,-0.2009,-0.2024,-0.2165,-0.23,-0.2257,-0.2225,-0.2186,-0.2142,-0.208,-0.202,-0.2154,-0.207,-0.2081,-0.2099,-0.2084,-0.2072,-0.2087,-0.1999,-0.2002,-0.2003,-0.2004,0,-0.1453,-0.1474,-0.1559,-0.1625,-0.172,-0.1735,-0.1818,-0.1858,-0.1913,-0.2061,-0.204,-0.2075,-0.2158,-0.2046,-0.1991,-0.1917,-0.189,-0.1828,-0.185,-0.187,-0.1844,-0.1801,-0.1583,0,0,0,0,0,-0.1362,-0.1362,-0.1416,-0.1471,-0.1559,-0.1599,-0.1728,-0.1814,-0.1962,-0.1877,-0.1951,-0.1907,-0.1833,-0.1858,-0.1738,-0.1902,-0.1892,-0.1757,-0.1832,-0.1904,-0.1924,-0.191,0,0,0,0,0,0,-0.1298,-0.1337,-0.1354,-0.1312,-0.132,-0.1382,-0.1449,-0.1557,-0.1527,-0.1689,-0.1652,-0.1782,-0.173,-0.1852,-0.169,-0.1697,-0.1703,-0.1801,-0.1796,-0.1893,-0.1911,-0.1927,-0.192,0,0,0,0,0]},{"header":{"parameterUnit":"m.s-1","parameterCategory":2,"la1":30.2991,"la2":30.254,"lo1":-89.0895,"lo2":-89.0444,"dy":0.0017,"dx":0.0017,"nx":28,"ny":28,"refTime":"2024-02-09T03:00:00:Z","depth":"4","parameterNumber":3,"parameterNumberName":"V-component_of_CURRENTS"},"data":[0,0,0,0,0,0,0,0,0,0,0,0,0,0,0,0,0,0,0,0,0,0,0,0,0,0,0,0,0,0,0,0,0,0,0,0,0,0,0,0,0,0,0,0,0,0,0,0,0,0,0,0,0,0,0,0,0,0,-0.0315,-0.0314,0,-0.0267,-0.0267,-0.0266,-0.0226,-0.0226,-0.0225,-0.0225,-0.0128,-0.0126,-0.0124,0,0,0,0,0,0,0,0,0,0,0,0,0,-0.0329,-0.0329,-0.0315,-0.0314,-0.0314,-0.0267,-0.0267,-0.0266,-0.0226,-0.0226,-0.0225,-0.0225,-0.0129,-0.0126,-0.0123,0,0,0,0,0,0,0,0,0,0,0,0,0,-0.0305,-0.0329,-0.0315,-0.029,-0.0287,-0.0267,-0.0266,-0.0266,-0.0226,-0.0226,-0.0225,-0.0225,-0.013,-0.0126,-0.0123,-0.0111,0,0,-0.0113,-0.0111,0,0,0,0,0,0,0,0,-0.0306,-0.0304,-0.0294,-0.0291,-0.0288,-0.0253,-0.0236,-0.0212,-0.0226,-0.0248,-0.0225,-0.0224,-0.0167,-0.016,-0.0151,-0.0106,-0.0102,-0.0112,-0.011,-0.0109,-0.0108,0,0,0,0,0,0,0,-0.0308,-0.0306,-0.0295,-0.0293,-0.029,-0.0266,-0.0262,-0.0231,-0.0208,-0.0246,-0.0243,-0.024,-0.0165,-0.0154,-0.0148,-0.0101,-0.0112,-0.0109,-0.0107,-0.0106,-0.0029,-0.0029,0,0,0,0,0,0,-0.032,-0.0308,-0.0296,-0.0293,-0.0298,-0.0266,-0.0262,-0.0264,-0.021,-0.0202,-0.0241,-0.0238,-0.0161,-0.0152,-0.0145,-0.0125,-0.0109,-0.0105,-0.0104,-0.0029,-0.0029,-0.0029,0,0,0,0,0,0,-0.032,-0.0319,-0.0298,-0.03,-0.0296,-0.0267,-0.0269,-0.0263,-0.0256,-0.0207,-0.0197,-0.024,-0.016,-0.0149,-0.0121,-0.012,-0.0104,-0.0101,-0.0029,-0.0029,-0.0029,-0.0086,0,0,0,0,0,0,-0.0321,-0.032,-0.0329,-0.0301,-0.0296,-0.0296,-0.0269,-0.0263,-0.0255,-0.0252,-0.0203,-0.0193,-0.0159,-0.0126,-0.0117,-0.0115,-0.0098,-0.0029,-0.0029,-0.0029,-0.0084,-0.0088,-0.0091,0,0,0,0,0,-0.0322,-0.0339,-0.033,-0.0329,-0.0309,-0.0297,-0.0293,-0.0269,-0.0256,-0.0259,-0.0222,-0.0195,-0.012,-0.0124,-0.0113,-0.011,-0.0029,-0.0029,-0.0029,-0.0082,-0.0087,-0.0091,0,0,0,0,0,0,-0.0351,-0.0335,-0.0325,-0.0337,-0.0322,-0.0291,-0.0295,-0.0276,-0.025,-0.0247,-0.0197,-0.0185,-0.016,-0.0128,-0.0133,-0.0088,-0.0069,-0.0067,-0.0113,-0.0117,-0.012,-0.0126,-0.0095,0,0,0,0,0,-0.0362,-0.0371,-0.0348,-0.0359,-0.0355,-0.0326,-0.0319,-0.0303,-0.0275,-0.0264,-0.0228,-0.0188,-0.0152,-0.013,-0.0099,-0.0074,-0.0031,-0.0064,-0.0068,-0.0071,-0.0068,-0.0004,-0.0002,-0.003,-0.003,-0.003,0,0,-0.0377,-0.0371,-0.0375,-0.0366,-0.0353,-0.0353,-0.0321,-0.0318,-0.0313,-0.0257,-0.0242,-0.0203,-0.015,-0.0124,-0.0109,-0.0096,-0.0042,-0.0071,-0.0075,-0.007,-0.0004,-0.0001,0.0001,-0.003,-0.003,-0.003,0,0,-0.0413,-0.0405,-0.0425,-0.0415,-0.0403,-0.0382,-0.0384,-0.0356,-0.034,-0.0321,-0.0277,-0.0236,-0.0191,-0.0145,-0.0117,-0.012,-0.0068,-0.0113,-0.0129,-0.0067,-0.0064,-0.0061,-0.001,-0.0002,-0.0109,-0.0109,-0.011,0,-0.0433,-0.0452,-0.0429,-0.0442,-0.0438,-0.0399,-0.0412,-0.039,-0.0355,-0.0337,-0.0326,-0.024,-0.0198,-0.0146,-0.0145,-0.0127,-0.0088,-0.0119,-0.0072,-0.0068,-0.0064,-0.0012,-0.0002,-0.0112,-0.0112,-0.0112,-0.0111,0,-0.0478,-0.0493,-0.0504,-0.0505,-0.0496,-0.0504,-0.0468,-0.0456,-0.043,-0.0396,-0.0349,-0.0286,-0.023,-0.021,-0.0177,-0.0126,-0.0107,-0.009,-0.0063,-0.0064,-0.001,0.0001,-0.0116,-0.0115,-0.0114,-0.0114,0,0,-0.052,-0.0535,-0.054,-0.0552,-0.0531,-0.053,-0.0519,-0.0491,-0.0478,-0.0431,-0.04,-0.033,-0.0285,-0.0249,-0.0196,-0.0138,-0.0076,-0.0105,-0.0101,-0.0059,0.0054,0.0039,0.0051,-0.0051,-0.0049,-0.0048,0.0078,0,-0.0564,-0.0608,-0.0597,-0.0628,-0.0641,-0.0602,-0.0594,-0.0559,-0.0516,-0.0475,-0.0392,-0.0346,-0.0302,-0.0273,-0.0207,-0.0107,-0.0048,-0.0112,0.0053,0.0058,0.0042,0.0063,-0.0042,0.0086,0.0089,0.0091,0.0092,0,-0.0608,-0.0631,-0.0677,-0.0687,-0.0689,-0.0702,-0.0673,-0.0658,-0.0582,-0.0543,-0.0471,-0.0402,-0.0304,-0.0273,-0.01,-0.0144,-0.0051,0.0025,0.0032,0.0047,0.0064,0.0092,0.0113,0.0112,0.011,0.0109,0.0107,0,-0.0647,-0.0684,-0.0726,-0.073,-0.0733,-0.0747,-0.0742,-0.0685,-0.0667,-0.0583,-0.055,-0.0427,-0.0359,-0.023,-0.007,-0.0082,0.012,0.0126,0.02,0.02,0.02,0.0196,0.0246,0.0246,0.0245,0.0245,0.0245,0,-0.0687,-0.0721,-0.0757,-0.078,-0.0826,-0.0801,-0.082,-0.0791,-0.0734,-0.0699,-0.0591,-0.0528,-0.0344,-0.0205,-0.0072,0.0101,0.0123,0.0205,0.0236,0.0172,0.0163,0.0208,0.0202,0.025,0.0249,0.0248,0.0247,0,-0.0717,-0.0742,-0.0797,-0.0833,-0.0852,-0.0882,-0.0892,-0.0888,-0.0828,-0.0776,-0.075,-0.0588,-0.0406,-0.0222,0.0006,0.0096,0.0261,0.0316,0.0235,0.0257,0.0299,0.0289,0.0407,0.0408,0.0408,0.0409,0.0409,0,-0.0735,-0.0769,-0.0849,-0.0894,-0.0923,-0.0962,-0.0983,-0.0945,-0.0925,-0.0806,-0.0776,-0.0598,-0.0472,-0.0156,0.0024,0.0275,0.0304,0.0378,0.0338,0.03,0.0318,0.0307,0.0296,0.041,0.041,0.041,0.041,0,-0.0765,-0.0804,-0.0851,-0.0949,-0.1005,-0.1043,-0.1066,-0.1056,-0.0981,-0.0932,-0.077,-0.0595,-0.0385,-0.015,0.0048,0.0224,0.0322,0.0384,0.0383,0.0346,0.0305,0.032,0.0309,0.0412,0.0412,0.0411,0.0411,0,-0.0787,-0.0834,-0.0911,-0.0986,-0.106,-0.1097,-0.1106,-0.1058,-0.1021,-0.0878,-0.0824,-0.0586,-0.044,-0.0176,0.0007,0.0178,0.021,0.0243,0.0251,0.0251,0.016,0.0081,0.0155,0,0,0,0,0,-0.0795,-0.0853,-0.0938,-0.1018,-0.1089,-0.1124,-0.1141,-0.1125,-0.1055,-0.0946,-0.0877,-0.0674,-0.0371,-0.0235,-0.0065,-0.0012,0.0214,0.0187,0.0249,0.0422,0.042,0.0337,0,0,0,0,0,0,-0.0806,-0.089,-0.0936,-0.102,-0.1074,-0.1136,-0.1146,-0.1105,-0.1027,-0.0936,-0.077,-0.0654,-0.0362,-0.0463,-0.0065,-0.0013,0.0042,0.0339,0.0342,0.0423,0.0421,0.042,0.0334,0,0,0,0,0]}]]